Madisonville, KY

1:02 AM CDT on October 01, 2016 (GMT -0500)
Madisonville

Weather History for K2I0 - April, 2013

Change the Weather History Date:

Thursday, April 4, 2013

  Actual Average (KOWB) Record (KOWB)
Temperature  
Mean Temperature 44 °F -  
Max Temperature 52 °F 64 °F 85 °F (1934)
Min Temperature 38 °F 43 °F 26 °F (1936)
Degree Days  
Heating Degree Days 20    
Moisture  
Dew Point 32 °F    
Average Humidity 62    
Maximum Humidity 87    
Minimum Humidity 42    
Precipitation  
Precipitation 0.00 in - - ()
Sea Level Pressure  
Sea Level Pressure 30.10 in    
Wind  
Wind Speed 5 mph (ENE)    
Max Wind Speed 8 mph    
Max Gust Speed -    
Visibility 10 miles    
Events Rain    
Averages and records for this station are not official NWS values.
T = Trace of Precipitation, MM = Missing Value Source: NWS Daily Summary

Daily Weather History Graph

Daily Weather History Graph

Search for Another Location

Airport or City:

Trip Planner

Search our weather history database for the weather conditions in past years. The results will help you decide how hot, cold, wet, or windy it might be!

Date:

Astronomy

Apr. 04, 2013 Rise Set
Actual Time 6:30 AM CDT 7:15 PM CDT
Civil Twilight 6:03 AM CDT 7:41 PM CDT
Nautical Twilight 5:32 AM CDT 8:12 PM CDT
Astronomical Twilight 5:00 AM CDT 8:45 PM CDT
Moon 2:49 AM CDT (4/4) 1:39 PM CDT (4/4)
Length of Visible Light 13h 37m
Length of Day
12h 44m
Waning Crescent, 33% of the Moon is Illuminated
Apr 4
Waning Crescent
Apr 10
New
Apr 18
First Quarter
Apr 25
Full
May 2
Last Quarter

Hourly Weather History & Observations

Time (CDT) Temp. Windchill Dew Point Humidity Pressure Visibility Wind Dir Wind Speed Gust Speed Precip Events Conditions
12:15 AM 41.4 °F 38.4 °F 31.1 °F 67% 30.23 in 10.0 mi NE 4.6 mph - N/A   Clear
12:35 AM 41.9 °F 37.5 °F 30.2 °F 63% 30.23 in 10.0 mi NE 6.9 mph - N/A   Clear
12:55 AM 41.7 °F 37.3 °F 30.7 °F 65% 30.22 in 10.0 mi ENE 6.9 mph - N/A   Clear
1:15 AM 41.7 °F 37.3 °F 30.4 °F 64% 30.21 in 10.0 mi East 6.9 mph - N/A   Clear
1:35 AM 42.8 °F 38.0 °F 29.7 °F 60% 30.20 in 10.0 mi East 8.1 mph - N/A   Clear
1:55 AM 42.6 °F 37.8 °F 29.1 °F 59% 30.19 in 10.0 mi ENE 8.1 mph - N/A   Clear
2:15 AM 42.1 °F 38.4 °F 29.7 °F 61% 30.19 in 10.0 mi ENE 5.8 mph - N/A   Clear
2:35 AM 41.4 °F 36.8 °F 28.9 °F 61% 30.17 in 10.0 mi ENE 6.9 mph - N/A   Clear
2:55 AM 41.2 °F 37.3 °F 28.2 °F 60% 30.16 in 10.0 mi NE 5.8 mph - N/A   Clear
3:15 AM 41.4 °F 36.8 °F 28.0 °F 59% 30.15 in 10.0 mi NE 6.9 mph - N/A   Clear
3:35 AM 41.4 °F 36.8 °F 28.0 °F 59% 30.15 in 10.0 mi NE 6.9 mph - N/A   Clear
3:55 AM 41.4 °F 37.6 °F 27.5 °F 58% 30.15 in 10.0 mi NE 5.8 mph - N/A   Clear
4:15 AM 40.5 °F 36.5 °F 29.5 °F 65% 30.14 in 10.0 mi NE 5.8 mph - N/A   Clear
4:35 AM 39.2 °F 35.9 °F 31.5 °F 74% 30.14 in 10.0 mi NE 4.6 mph - N/A   Clear
4:55 AM 39.4 °F 35.2 °F 30.0 °F 69% 30.14 in 10.0 mi ENE 5.8 mph - N/A   Clear
5:15 AM 38.7 °F 34.3 °F 30.9 °F 74% 30.14 in 10.0 mi NE 5.8 mph - N/A   Clear
5:35 AM 39.2 °F 35.0 °F 29.3 °F 68% 30.13 in 10.0 mi NE 5.8 mph - N/A   Clear
5:55 AM 39.2 °F 37.0 °F 29.3 °F 68% 30.13 in 10.0 mi ENE 3.5 mph - N/A   Clear
6:15 AM 38.3 °F 35.9 °F 32.0 °F 78% 30.14 in 10.0 mi NE 3.5 mph - N/A   Clear
6:35 AM 39.2 °F 35.9 °F 30.2 °F 70% 30.13 in 10.0 mi NE 4.6 mph - N/A   Clear
6:55 AM 39.4 °F 36.1 °F 31.5 °F 73% 30.14 in 10.0 mi NNE 4.6 mph - N/A   Clear
7:15 AM 39.9 °F 35.8 °F 31.5 °F 72% 30.13 in 10.0 mi NE 5.8 mph - N/A   Clear
7:35 AM 40.5 °F 37.3 °F 32.0 °F 72% 30.14 in 10.0 mi NNE 4.6 mph - N/A   Clear
7:55 AM 41.2 °F 36.6 °F 32.0 °F 70% 30.13 in 10.0 mi NNE 6.9 mph - N/A   Scattered Clouds
8:15 AM 42.4 °F 37.5 °F 29.1 °F 59% 30.13 in 10.0 mi NE 8.1 mph - N/A   Scattered Clouds
8:35 AM 42.8 °F 38.6 °F 28.6 °F 57% 30.13 in 10.0 mi NE 6.9 mph - N/A   Scattered Clouds
8:55 AM 43.0 °F 38.8 °F 27.9 °F 55% 30.13 in 10.0 mi NE 6.9 mph - N/A   Mostly Cloudy
9:15 AM 43.7 °F 40.3 °F 28.8 °F 56% 30.12 in 10.0 mi NE 5.8 mph - N/A   Mostly Cloudy
9:35 AM 45.0 °F 41.8 °F 29.7 °F 55% 30.12 in 10.0 mi NE 5.8 mph - N/A   Mostly Cloudy
9:55 AM 45.7 °F 42.0 °F 27.0 °F 48% 30.12 in 10.0 mi ENE 6.9 mph - N/A   Scattered Clouds
10:15 AM 45.9 °F 42.9 °F 27.7 °F 49% 30.13 in 10.0 mi ENE 5.8 mph - N/A   Mostly Cloudy
10:35 AM 46.2 °F 44.1 °F 26.6 °F 46% 30.13 in 10.0 mi East 4.6 mph - N/A   Overcast
10:55 AM 46.6 °F - 25.9 °F 44% 30.13 in 10.0 mi East 3.5 mph - N/A   Overcast
11:35 AM 46.9 °F - 27.1 °F 46% 30.12 in 10.0 mi ENE 4.6 mph - N/A   Overcast
11:55 AM 47.5 °F - 26.2 °F 44% 30.11 in 10.0 mi Calm Calm - N/A   Overcast
12:15 PM 48.0 °F - 26.1 °F 42% 30.11 in 10.0 mi Calm Calm - N/A   Overcast
12:35 PM 48.7 °F - 27.0 °F 43% 30.10 in 10.0 mi Calm Calm - N/A   Overcast
12:55 PM 49.3 °F - 27.9 °F 44% 30.09 in 10.0 mi South 3.5 mph - N/A   Overcast
1:15 PM 49.6 °F - 32.5 °F 52% 30.09 in 10.0 mi South 4.6 mph - N/A Rain Light Rain
1:35 PM 49.6 °F - 31.3 °F 49% 30.08 in 10.0 mi South 3.5 mph - N/A   Mostly Cloudy
1:55 PM 49.5 °F - 33.4 °F 54% 30.07 in 10.0 mi South 4.6 mph - N/A   Light Drizzle
2:15 PM 49.1 °F - 34.0 °F 56% 30.06 in 10.0 mi Calm Calm - N/A   Overcast
2:35 PM 49.1 °F - 34.7 °F 58% 30.06 in 10.0 mi SE 3.5 mph - N/A   Overcast
2:55 PM 49.3 °F - 34.5 °F 57% 30.06 in 10.0 mi Calm Calm - N/A   Overcast
3:15 PM 50.0 °F - 35.8 °F 58% 30.05 in 10.0 mi NE 3.5 mph - N/A   Mostly Cloudy
3:35 PM 50.4 °F - 35.4 °F 57% 30.04 in 10.0 mi Calm Calm - N/A   Mostly Cloudy
3:55 PM 50.9 °F - 34.9 °F 54% 30.04 in 10.0 mi Calm Calm - N/A   Mostly Cloudy
4:15 PM 51.6 °F - 34.9 °F 53% 30.03 in 10.0 mi Calm Calm - N/A   Overcast
4:35 PM 51.4 °F - 35.4 °F 54% 30.03 in 10.0 mi Calm Calm - N/A   Overcast
4:55 PM 51.8 °F - 35.1 °F 53% 30.03 in 10.0 mi Calm Calm - N/A   Mostly Cloudy
5:15 PM 51.8 °F - 35.1 °F 53% 30.03 in 10.0 mi Calm Calm - N/A   Mostly Cloudy
5:35 PM 51.8 °F - 35.2 °F 53% 30.03 in 10.0 mi Calm Calm - N/A   Overcast
5:55 PM 51.8 °F - 34.5 °F 52% 30.03 in 10.0 mi Calm Calm - N/A   Overcast
6:15 PM 51.4 °F - 35.6 °F 55% 30.03 in 10.0 mi Calm Calm - N/A   Overcast
6:35 PM 51.4 °F - 36.0 °F 56% 30.03 in 10.0 mi Calm Calm - N/A   Overcast
6:55 PM 51.4 °F - 37.0 °F 58% 30.03 in 10.0 mi Calm Calm - N/A   Mostly Cloudy
7:15 PM 50.9 °F - 37.4 °F 60% 30.03 in 10.0 mi SSE 3.5 mph - N/A   Overcast
7:35 PM 50.4 °F - 37.4 °F 61% 30.03 in 10.0 mi SSE 3.5 mph - N/A   Mostly Cloudy
7:55 PM 48.7 °F - 39.4 °F 70% 30.03 in 10.0 mi Calm Calm - N/A   Overcast
8:15 PM 48.2 °F - 41.5 °F 78% 30.02 in 10.0 mi SW 3.5 mph - N/A   Overcast
8:35 PM 46.6 °F - 39.4 °F 76% 30.03 in 10.0 mi WNW 4.6 mph - N/A   Mostly Cloudy
8:55 PM 46.8 °F - 38.8 °F 74% 30.04 in 10.0 mi West 4.6 mph - N/A   Clear
9:15 PM 45.1 °F 43.7 °F 38.3 °F 77% 30.04 in 10.0 mi West 3.5 mph - N/A   Clear
9:35 PM 44.1 °F 42.5 °F 37.9 °F 79% 30.04 in 10.0 mi WSW 3.5 mph - N/A   Clear
9:55 PM 45.9 °F 44.6 °F 37.9 °F 74% 30.03 in 10.0 mi SW 3.5 mph - N/A   Clear
10:15 PM 42.3 °F - 37.9 °F 85% 30.03 in 10.0 mi Calm Calm - N/A   Clear
10:35 PM 43.9 °F - 38.1 °F 80% 30.03 in 10.0 mi Calm Calm - N/A   Clear
10:55 PM 41.9 °F 39.0 °F 37.6 °F 85% 30.03 in 10.0 mi WNW 4.6 mph - N/A   Clear
11:15 PM 40.8 °F 37.8 °F 37.2 °F 87% 30.03 in 10.0 mi WNW 4.6 mph - N/A   Clear
11:35 PM 43.3 °F 40.7 °F 38.3 °F 82% 30.03 in 10.0 mi WNW 4.6 mph - N/A   Scattered Clouds
11:55 PM 41.7 °F - 37.8 °F 86% 30.04 in 10.0 mi Calm Calm - N/A   Scattered Clouds